Location: Unspecified
(0.0000°N, 0.0000°E)
Time: 03:23:39
(UTC+02:00)

SeaSat 1 - Visible Passes

Search period start: 25 October 2014 00:00
Search period end: 03 November 2014 23:00
Orbit: 747 x 749 km, 108.0° (Epoch: 23 October)

Date Brightness Start Highest point End Pass type
(mag) Time Alt. Az. Time Alt. Az. Time Alt. Az.
25 Oct 4.9 05:18:57 10° SSE 05:19:37 14° SSE 05:19:37 14° SSE visible
26 Oct 4.6 05:16:41 10° SSW 05:17:23 12° SW 05:17:23 12° SW visible
27 Oct 4.3 04:33:34 10° S 04:35:19 22° S 04:35:19 22° S visible
28 Oct 5.2 03:52:31 10° SE 03:53:15 14° SE 03:53:15 14° SE visible
28 Oct 4.4 05:31:47 10° SW 05:33:06 13° SW 05:33:06 13° SW visible
29 Oct 3.6 04:48:13 10° S 04:51:02 32° SSW 04:51:02 32° SSW visible
30 Oct 4.5 04:06:56 10° SE 04:08:59 24° SE 04:08:59 24° SE visible
30 Oct 4.3 05:47:05 10° SW 05:48:50 12° WSW 05:48:50 12° WSW visible
31 Oct 3.0 05:02:52 10° S 05:06:46 40° SW 05:06:46 40° SW visible
01 Nov 3.7 04:21:22 10° SE 04:24:43 39° ESE 04:24:43 39° ESE visible
02 Nov 5.4 03:42:11 10° E 03:42:40 11° E 03:42:40 11° E visible
02 Nov 3.0 05:17:34 10° S 05:22:04 36° WSW 05:22:31 36° W visible
03 Nov 2.8 04:35:49 10° SSE 04:40:29 60° E 04:40:29 60° E visible
